Weather History for KPVD - March, 2013

Change the Weather History Date:

Thursday, March 21, 2013

  Actual Average Record
Temperature  
Mean Temperature 34 °F 40 °F  
Max Temperature 39 °F 49 °F 84 °F (1921)
Min Temperature 28 °F 31 °F 12 °F (1986)
Degree Days  
Heating Degree Days 31 25  
Month to date heating degree days 588 581  
Since 1 July heating degree days 4409 4643  
Cooling Degree Days 0 0  
Month to date cooling degree days 0 0  
Year to date cooling degree days 0 0  
Moisture  
Dew Point 23 °F    
Average Humidity 68    
Maximum Humidity 85    
Minimum Humidity 50    
Precipitation  
Precipitation T in 0.19 in 2.02 in (1974)
Month to date precipitation 2.39 3.28  
Year to date precipitation 9.35 10.43  
Snow  
Snow T in 0.10 in 4.60 in (1912)
Month to date snowfall 4.9 4.4  
Since 1 July snowfall 46.3 32.1  
Snow Depth 0.00 in    
Sea Level Pressure  
Sea Level Pressure 29.69 in    
Wind  
Wind Speed 7 mph (North)    
Max Wind Speed 15 mph    
Max Gust Speed 20 mph    
Visibility 8 miles    
Events Snow    
T = Trace of Precipitation, MM = Missing Value Source: NWS Daily Summary

Daily Weather History Graph

Daily Weather History Graph

Search for Another Location

Airport or City:

Trip Planner

Search our weather history database for the weather conditions in past years. The results will help you decide how hot, cold, wet, or windy it might be!

Date:

Astronomy

Mar. 21, 2013 Rise Set
Actual Time 6:46 AM EDT 6:59 PM EDT
Civil Twilight 6:19 AM EDT 7:27 PM EDT
Nautical Twilight 5:46 AM EDT 7:59 PM EDT
Astronomical Twilight 5:13 AM EDT 8:32 PM EDT
Moon 1:22 PM EDT (3/21) 3:10 AM EDT (3/21)
Length of Visible Light 13h 07m
Length of Day
12h 12m
Waxing Gibbous, 68% of the Moon is Illuminated
Mar 21
Waxing Gibbous
Mar 27
Full
Apr 3
Last Quarter
Apr 10
New
Apr 18
First Quarter

Hourly Weather History & Observations

Time (EDT) Temp. Windchill Dew Point Humidity Pressure Visibility Wind Dir Wind Speed Gust Speed Precip Events Conditions
12:51 AM 28.9 °F - 19.9 °F 69% 29.83 in 10.0 mi Calm Calm - N/A   Scattered Clouds
1:51 AM 28.0 °F - 21.0 °F 75% 29.83 in 10.0 mi Calm Calm - N/A   Overcast
2:51 AM 30.0 °F 26.5 °F 19.9 °F 66% 29.81 in 10.0 mi West 3.5 mph - N/A   Overcast
3:51 AM 30.0 °F - 19.9 °F 66% 29.80 in 10.0 mi Calm Calm - N/A   Overcast
4:51 AM 30.9 °F 27.5 °F 19.9 °F 64% 29.78 in 10.0 mi North 3.5 mph - N/A   Overcast
5:51 AM 30.9 °F 26.2 °F 19.9 °F 64% 29.79 in 10.0 mi NNE 4.6 mph - N/A   Overcast
6:51 AM 30.9 °F 25.2 °F 19.0 °F 61% 29.79 in 10.0 mi North 5.8 mph - N/A   Mostly Cloudy
7:51 AM 32.0 °F 25.6 °F 17.1 °F 54% 29.80 in 10.0 mi North 6.9 mph - N/A   Mostly Cloudy
8:51 AM 32.0 °F 24.8 °F 18.0 °F 56% 29.78 in 10.0 mi NNW 8.1 mph - N/A   Mostly Cloudy
9:51 AM 35.1 °F 29.3 °F 19.9 °F 54% 29.77 in 10.0 mi North 6.9 mph - N/A   Scattered Clouds
10:51 AM 36.0 °F 27.5 °F 19.9 °F 52% 29.75 in 10.0 mi North 12.7 mph - N/A   Mostly Cloudy
11:51 AM 36.0 °F 29.0 °F 19.9 °F 52% 29.73 in 10.0 mi NNW 9.2 mph - N/A   Overcast
12:51 PM 37.0 °F 29.3 °F 21.0 °F 52% 29.69 in 10.0 mi North 11.5 mph - N/A   Mostly Cloudy
1:51 PM 37.9 °F 30.5 °F 21.9 °F 53% 29.67 in 10.0 mi NNE 11.5 mph - N/A   Mostly Cloudy
2:51 PM 39.0 °F 32.3 °F 23.0 °F 53% 29.63 in 10.0 mi North 10.4 mph 17.3 mph N/A   Mostly Cloudy
3:51 PM 37.0 °F 31.0 °F 24.1 °F 59% 29.62 in 10.0 mi North 8.1 mph - N/A   Overcast
4:51 PM 36.0 °F 28.5 °F 24.1 °F 62% 29.61 in 7.0 mi NNW 10.4 mph - 0.00 in Snow Light Snow
5:46 PM 35.6 °F 28.6 °F 24.8 °F 65% 29.62 in 2.0 mi North 9.2 mph - 0.00 in Snow Light Snow
5:47 PM 35.1 °F 28.6 °F 25.0 °F 67% 29.62 in 2.0 mi North 8.1 mph - 0.00 in Snow Light Snow
5:51 PM 35.1 °F 28.6 °F 25.0 °F 67% 29.62 in 2.0 mi North 8.1 mph - 0.00 in Snow Light Snow
5:56 PM 33.8 °F 25.8 °F 26.6 °F 75% 29.61 in 1.0 mi NNW 10.4 mph - 0.00 in Snow Light Snow
6:22 PM 33.8 °F 25.8 °F 26.6 °F 75% 29.62 in 2.5 mi NNW 10.4 mph - 0.00 in Snow Light Snow
6:34 PM 33.8 °F 25.3 °F 26.6 °F 75% 29.62 in 9.0 mi NNW 11.5 mph - 0.00 in Snow Light Snow
6:51 PM 34.0 °F 25.5 °F 25.0 °F 70% 29.63 in 9.0 mi NNW 11.5 mph - 0.00 in   Overcast
7:51 PM 33.1 °F 26.9 °F 25.0 °F 72% 29.63 in 10.0 mi North 6.9 mph - N/A   Overcast
8:51 PM 33.1 °F 25.5 °F 25.0 °F 72% 29.64 in 7.0 mi North 9.2 mph - 0.00 in Snow Light Snow
9:49 PM 30.2 °F 26.7 °F 26.6 °F 86% 29.64 in 1.8 mi NNE 3.5 mph - 0.00 in Snow Light Snow
9:50 PM 30.9 °F 27.5 °F 27.0 °F 85% 29.64 in 1.8 mi NNE 3.5 mph - 0.00 in Snow Light Snow
9:59 PM 30.2 °F 26.7 °F 28.4 °F 93% 29.64 in 3.0 mi NNE 3.5 mph - 0.00 in Snow Light Snow
10:10 PM 30.2 °F - 28.4 °F 93% 29.63 in 4.0 mi Calm Calm - 0.00 in Snow Light Snow
10:20 PM 30.2 °F - 28.4 °F 93% 29.63 in 8.0 mi Calm Calm - 0.00 in Snow Light Snow
10:51 PM 32.0 °F 26.4 °F 27.0 °F 82% 29.63 in 9.0 mi West 5.8 mph - 0.00 in   Overcast
11:51 PM 32.0 °F 27.5 °F 27.0 °F 82% 29.63 in 10.0 mi West 4.6 mph - N/A   Overcast